Location: Chittendens Corners
(41.2320°N, 81.4940°W)
Time: 17:55:29
(UTC+00:00)

SAR-Lupe-4 - Pass Details

Date: 29 October 2020
Orbit: 481 x 484 km, 98.2° (Epoch: 22 November)

Event Time Altitude Azimuth Distance (km) Brightness Sun altitude
Rises 23:22:32 0° 12° (NNE) 2,552 7.0 -11.5°
Reaches altitude 10° 23:24:36 10° 12° (NNE) 1,667 6.1 -11.9°
Maximum altitude 23:28:11 88° 290° (WNW) 488 3.5 -12.5°
Drops below altitude 10° 23:31:45 10° 195° (SSW) 1,654 6.5 -13.2°
Sets 23:33:47 0° 195° (SSW) 2,529 7.5 -13.6°
